RH
81 83 85 88 90 92 92 90 88 84 87 84 76 76 79 80 74 74 77 76 78 76 73 76 75 73 70 65 65 69 68 53 38 36 40 42 40 37 38 37 36 34 29 23 18 14 12 13 13 12 11 12 15 15 14 13 13 14 14 14 15 16 16 16 16 16 16 15 14 15 14 14 14 13 14 14 13 14 14 14 14 14 13 13 12 11 10 10 9 8 8 8 8 7 7 7 7
78 83 85 86 88 91 90 89 86 81 82 78 73 77 79 77 73 74 80 80 78 75 72 72 70 69 69 70 71 68 54 34 27 32 33 35 36 36 35 32 29 25 20 15 13 13 13 14 14 12 12 14 16 15 14 13 14 15 15 15 16 17 17 17 17 17 17 17 16 16 16 16 16 15 15 15 15 15 15 15 15 15 14 13 12 11 10 9 8 8 8 7 8 7 7 8 7
76 79 83 86 87 88 88 88 84 78 76 71 68 74 77 77 77 77 77 76 73 72 72 72 73 74 75 74 66 55 36 20 26 32 32 33 33 30 26 23 19 16 14 13 13 13 14 15 15 12 13 16 16 15 14 14 15 16 16 17 17 17 17 17 17 17 17 17 17 17 17 17 17 17 17 16 16 16 16 16 16 16 15 14 13 12 11 10 8 8 8 7 8 7 7 8 8
76 78 80 84 86 86 88 88 85 79 74 70 65 69 77 78 77 75 73 73 74 75 76 77 78 75 71 64 49 37 24 20 31 31 27 27 24 22 19 17 15 14 13 13 13 14 15 16 15 13 15 17 17 16 15 16 17 17 17 18 18 18 18 18 18 18 18 18 18 18 18 18 18 18 18 18 18 18 17 17 17 17 16 15 14 13 12 11 9 9 8 8 8 8 7 8 8
63 76 80 82 84 84 87 88 86 83 77 72 67 71 78 75 75 75 76 77 77 78 78 77 74 66 55 42 32 27 23 28 33 27 24 23 22 21 18 16 15 13 13 13 13 14 15 16 15 13 16 18 18 16 16 17 18 19 18 19 18 18 18 19 19 19 19 19 20 20 19 19 19 19 19 19 20 19 19 19 18 17 16 15 14 13 12 11 10 9 9 9 8 8 8 8 8
30 52 70 79 82 80 81 82 80 81 78 74 72 75 76 73 76 78 76 76 75 75 72 66 57 47 35 25 25 27 27 31 29 25 25 24 23 20 17 15 13 13 13 13 13 15 16 16 14 14 18 19 18 17 16 17 19 19 19 19 18 19 19 20 20 19 19 20 20 20 21 21 21 21 21 20 20 20 20 20 19 18 17 15 14 13 12 11 10 9 9 10 9 9 9 9 9
8 20 41 59 70 72 75 77 73 77 75 69 71 73 73 74 76 75 72 70 66 60 52 43 35 30 24 22 25 24 25 27 27 27 26 25 22 18 15 14 13 13 13 13 13 15 16 15 14 15 18 19 18 17 17 18 19 19 19 19 19 19 19 19 18 18 18 18 18 19 19 20 21 22 22 22 22 22 21 21 20 19 18 17 16 14 14 13 12 11 11 11 10 11 11 11 11
6 8 16 32 49 54 63 71 67 69 63 56 61 65 68 72 71 69 64 58 49 38 31 26 22 22 20 21 22 19 21 25 26 27 25 22 19 16 15 14 14 14 13 13 13 14 15 14 14 16 20 20 18 17 17 18 19 20 19 19 19 19 19 18 17 17 17 17 17 17 17 17 18 19 20 22 22 23 23 23 22 21 20 19 18 17 16 15 14 14 13 13 13 13 13 13 14
6 9 10 22 41 44 49 55 50 47 43 43 48 53 60 63 60 54 45 37 29 22 18 17 15 17 17 17 17 16 18 20 22 22 21 19 17 16 15 14 14 14 14 13 13 14 14 14 16 18 21 21 19 18 18 19 20 21 20 20 19 19 19 17 17 16 16 16 16 16 16 16 16 16 17 19 20 22 23 23 23 23 22 22 21 20 19 19 18 17 17 17 16 16 16 15 17
7 12 13 19 34 42 46 45 42 32 24 31 33 39 47 45 39 31 25 20 15 14 13 12 12 14 14 14 14 14 16 17 17 18 18 18 16 16 15 14 14 14 15 15 14 14 15 16 17 21 22 21 20 18 19 20 21 22 21 20 20 20 19 17 16 16 16 16 16 16 17 17 16 16 16 17 17 19 20 22 23 24 24 24 24 23 23 22 22 21 21 20 20 19 19 18 20
11 15 14 25 37 42 47 42 36 24 15 21 23 28 31 25 19 15 14 13 12 13 12 13 14 14 15 15 16 16 16 16 17 17 18 17 16 16 15 15 14 15 16 17 17 17 17 18 19 22 23 22 21 19 20 21 22 24 23 21 20 20 19 18 17 17 16 17 17 17 17 17 17 17 17 16 17 17 18 20 21 23 23 23 24 24 24 24 24 24 23 23 22 22 21 21 22
20 18 13 32 44 39 38 30 21 15 12 14 16 18 16 13 12 12 14 14 15 14 14 16 17 17 18 18 18 17 16 16 16 17 16 16 16 15 15 15 16 16 16 18 19 20 20 20 21 23 23 23 21 21 21 22 24 25 25 23 21 20 20 19 18 17 17 17 18 18 18 18 18 17 17 16 16 17 17 18 19 21 22 22 22 22 22 22 22 22 22 21 21 21 20 20 22
24 21 19 34 35 25 24 20 14 11 11 11 12 12 11 12 14 15 17 17 17 17 17 18 19 20 20 19 18 17 16 15 15 15 15 14 14 14 15 15 16 17 17 17 18 20 21 21 22 23 24 23 22 22 22 23 25 27 27 25 22 21 21 20 19 19 19 19 19 19 19 19 19 18 18 17 16 16 16 17 17 18 19 20 21 21 20 20 20 19 19 19 19 19 18 18 18
17 15 21 29 21 13 13 14 15 11 9 10 11 13 14 15 16 18 19 18 18 18 19 20 21 23 22 20 20 21 17 15 15 14 14 14 14 15 15 16 16 18 18 18 19 20 21 22 23 24 24 24 23 23 23 24 26 29 29 27 25 23 22 22 21 21 21 21 21 20 20 20 20 20 20 18 17 16 16 16 17 17 17 18 19 20 20 20 19 19 18 18 17 17 17 17 17
10 9 10 15 10 7 9 10 14 11 9 10 13 17 18 18 19 20 19 19 18 19 20 22 22 24 26 24 24 24 18 16 16 15 16 15 16 17 17 18 18 20 20 20 19 20 21 23 24 24 25 25 25 24 24 25 28 31 31 30 27 25 24 24 24 23 23 23 23 22 22 22 22 21 20 18 17 16 16 16 17 17 17 17 17 17 18 19 19 18 18 17 17 16 16 16 16
8 8 8 12 12 10 10 9 10 13 14 14 16 18 19 20 20 20 20 19 19 18 19 21 22 23 26 26 25 23 19 18 18 18 19 18 19 19 20 21 22 22 23 23 22 22 22 24 25 26 26 26 26 26 26 27 30 32 33 32 30 28 27 27 27 26 25 25 25 25 25 24 22 20 18 17 16 15 15 16 16 17 18 18 17 17 16 16 17 17 17 17 16 16 16 15 15
7 8 9 12 13 10 10 10 12 18 20 18 19 20 21 20 20 21 20 18 18 16 16 19 21 24 25 25 24 22 20 20 19 21 21 22 23 23 24 24 25 25 25 26 26 26 25 26 26 27 28 28 29 29 29 29 31 33 34 35 34 32 31 31 30 29 28 28 28 28 25 22 19 18 16 15 15 15 15 16 16 16 17 18 18 18 17 17 16 16 16 16 16 16 15 15 15
6 6 8 10 10 9 11 15 18 21 22 21 20 20 22 24 23 21 17 16 18 17 17 17 19 22 24 23 22 21 21 20 19 19 20 21 23 24 25 26 28 28 30 31 31 32 32 31 30 31 32 31 31 31 32 32 33 35 36 37 36 35 34 34 33 32 32 32 32 29 25 20 18 17 16 16 16 16 17 17 17 17 17 18 19 19 19 19 18 17 16 16 16 15 15 14 14
7 7 8 11 12 14 17 19 22 23 22 21 20 21 26 29 25 18 15 17 19 17 14 15 16 18 20 20 21 21 20 19 18 17 18 19 21 22 22 23 26 28 30 33 36 38 38 37 35 35 35 34 34 33 34 35 36 36 36 37 38 38 37 36 36 35 34 35 34 31 26 22 20 19 18 18 18 19 19 20 19 19 19 18 19 20 20 20 20 19 18 17 16 15 15 15 15
11 12 14 17 17 19 20 21 22 22 21 22 20 21 25 26 23 20 18 18 20 21 17 15 18 19 19 20 21 21 20 19 18 16 16 16 17 18 18 19 22 25 27 29 31 34 36 38 37 37 38 39 39 37 36 37 39 38 37 38 38 39 40 39 38 36 35 35 34 32 29 25 24 23 21 22 22 23 23 24 23 21 21 21 20 20 20 20 20 20 19 19 18 18 18 19 20
15 16 18 18 18 19 19 18 19 20 22 21 17 16 16 19 21 20 19 18 18 23 24 25 25 23 21 21 20 20 19 18 17 16 15 15 16 16 15 16 19 23 26 27 28 28 31 34 37 39 39 40 41 41 40 41 42 41 40 40 40 40 41 41 39 37 37 36 34 33 30 28 29 27 26 27 28 28 28 29 29 26 25 25 24 23 23 21 21 21 21 22 22 22 23 25 27
14 15 16 15 14 15 14 13 14 17 17 14 12 11 12 18 22 21 21 21 21 24 29 30 28 24 22 20 19 18 17 16 16 15 15 14 15 16 16 17 19 22 25 28 29 29 29 31 34 37 39 41 42 42 41 41 41 43 43 43 42 41 41 41 39 39 39 37 35 33 31 33 35 33 32 33 33 34 34 35 35 33 31 30 29 29 28 25 23 23 24 25 26 27 29 30 32
11 12 13 13 11 10 11 11 11 12 11 10 11 10 13 20 22 24 25 26 29 31 31 30 27 23 21 20 19 18 18 17 16 15 14 14 14 15 16 18 20 22 24 27 27 29 30 31 32 34 40 44 46 46 46 45 44 44 44 44 43 40 41 41 40 40 39 37 36 34 34 38 41 40 39 39 39 40 40 39 39 38 37 34 33 34 34 31 27 26 26 27 28 29 31 33 35
10 12 13 12 9 9 10 10 10 10 8 10 14 14 18 22 21 25 27 29 33 33 30 28 25 23 22 22 20 19 18 17 17 16 16 15 15 15 16 18 20 22 23 25 27 28 30 32 31 31 35 40 45 50 52 53 52 50 47 46 45 42 42 41 41 42 40 38 37 36 39 43 45 46 45 45 46 46 43 41 39 38 38 36 35 34 36 35 31 29 27 25 25 26 27 29 31
10 11 11 10 11 10 8 7 7 9 8 10 17 17 18 20 21 22 24 30 34 32 32 30 27 26 25 23 21 20 19 19 18 17 18 18 18 18 18 21 23 23 24 25 27 29 30 32 33 33 33 34 39 46 52 56 58 56 53 50 48 45 44 44 46 46 41 40 40 41 45 47 49 50 51 52 52 51 45 40 36 35 34 34 33 30 31 32 30 28 25 24 24 23 23 23 24
8 9 8 8 11 9 6 6 7 8 7 8 13 15 18 21 21 22 23 28 32 32 34 34 30 27 25 23 21 20 20 19 19 18 19 19 19 19 21 23 25 26 26 26 27 29 30 32 35 35 35 35 35 38 45 53 58 60 60 59 55 51 49 50 51 49 44 45 46 46 49 50 52 54 55 57 57 54 46 37 34 34 31 30 30 28 27 27 27 25 24 24 24 23 23 22 22
6 7 5 6 8 6 5 6 7 8 8 8 8 11 17 20 23 25 24 25 29 32 35 35 30 26 24 23 22 22 21 20 20 19 19 19 20 21 21 22 25 29 30 30 29 29 31 34 36 37 37 38 38 38 40 45 52 57 62 63 62 59 58 57 57 54 52 51 51 52 54 55 55 56 58 60 60 58 47 38 36 35 33 33 34 33 32 31 30 29 28 27 26 26 26 26 25
5 6 4 6 6 5 7 7 7 8 8 8 6 8 13 17 22 24 23 24 25 28 32 33 31 26 25 25 24 23 23 22 21 20 20 20 21 21 21 21 24 30 34 35 34 32 32 35 37 37 38 40 41 41 40 41 44 49 56 62 64 65 65 65 63 62 60 58 57 59 60 61 61 61 62 63 64 62 52 44 42 40 40 42 42 42 42 41 39 37 37 36 35 34 33 33 33
6 7 5 5 6 6 7 8 8 8 9 9 7 8 11 11 14 16 21 26 27 25 26 30 32 29 27 26 26 25 24 23 22 22 21 20 21 21 23 24 25 30 34 38 40 40 38 37 37 37 39 40 42 42 42 42 42 43 48 54 60 63 66 69 69 68 67 66 65 65 66 66 66 65 66 66 67 66 59 54 51 49 50 51 51 50 48 48 46 43 43 44 43 42 41 41 42
5 7 6 5 8 9 8 8 10 9 9 9 7 12 12 7 7 10 16 22 27 27 25 25 29 31 30 28 27 27 26 25 23 23 22 23 24 27 29 31 31 33 36 38 41 43 43 43 42 41 41 41 42 43 44 45 44 44 45 49 54 57 61 67 70 71 71 71 71 71 70 70 70 69 70 70 70 70 66 63 61 60 60 60 61 60 57 56 52 48 48 48 49 48 49 49 49
5 6 6 6 9 10 9 9 9 8 9 8 8 13 12 7 8 10 13 17 20 23 26 25 26 29 31 31 29 29 28 27 27 26 25 26 29 33 35 36 37 37 38 39 40 41 42 44 45 46 46 45 45 44 45 46 47 48 47 48 50 53 57 61 64 68 70 72 74 74 73 73 73 72 72 72 73 74 72 71 70 69 68 71 73 72 69 66 60 57 55 55 54 54 55 56 56
6 7 8 8 9 9 8 8 9 7 7 6 8 14 12 8 10 12 14 14 13 16 22 27 27 27 29 32 33 32 31 30 30 31 31 32 35 37 37 38 39 40 41 41 40 39 39 39 40 42 44 46 48 48 47 47 48 49 50 50 50 51 53 56 58 61 63 67 70 71 72 72 74 73 73 74 74 75 75 76 76 74 75 78 81 79 76 71 66 64 63 61 61 59 60 61 61
8 9 11 10 8 8 6 6 7 6 6 5 7 10 10 8 11 12 11 10 11 14 21 28 29 25 25 29 32 33 32 31 33 35 36 36 36 36 36 37 38 40 41 41 40 39 38 36 35 36 38 40 43 47 49 50 49 49 50 51 52 53 54 54 54 55 58 61 63 64 65 66 69 70 71 73 74 75 76 77 77 76 78 81 83 79 76 72 67 65 64 63 64 62 61 63 65
10 11 10 8 6 6 6 5 5 5 5 5 5 6 7 9 11 10 9 9 11 17 23 27 26 22 22 26 29 32 32 29 29 32 34 36 37 36 37 37 38 40 42 43 42 41 40 38 36 35 35 35 37 39 44 49 51 52 52 52 53 55 56 56 54 52 53 55 56 57 59 61 64 67 69 71 72 73 73 75 76 74 74 78 78 74 71 68 62 61 60 58 60 60 60 64 67
11 11 8 6 5 4 5 5 5 5 5 6 5 5 7 10 10 9 9 10 12 19 25 27 22 19 22 24 26 30 29 22 20 23 27 31 35 37 38 40 40 41 42 44 43 42 42 43 43 44 42 40 38 38 40 44 49 53 53 54 54 56 57 59 59 56 54 53 52 53 55 56 58 62 67 70 71 73 72 72 70 67 68 71 72 67 63 58 52 52 55 55 58 62 62 64 67
11 9 6 6 6 5 5 5 5 5 6 6 5 6 8 11 12 11 11 12 14 19 24 26 23 22 24 24 24 25 23 18 17 20 24 30 36 39 40 41 42 44 45 45 45 45 44 44 45 48 50 49 47 44 43 45 49 55 58 58 57 57 57 59 61 62 60 57 54 53 54 55 57 61 66 68 69 68 65 62 61 60 61 65 65 59 53 50 51 54 59 62 64 68 66 63 63
8 7 6 5 6 6 5 6 6 6 8 7 6 8 9 12 14 13 13 13 15 19 25 26 25 24 24 23 23 23 20 17 19 23 27 32 39 42 43 43 43 43 44 45 46 47 46 46 45 46 48 52 54 53 51 50 51 54 60 66 67 65 62 61 62 63 64 63 60 58 58 58 59 61 63 64 64 62 57 54 54 53 53 55 52 46 44 45 50 57 62 64 66 68 68 65 64
6 7 5 5 7 6 5 7 6 7 10 9 7 9 11 14 15 13 13 15 17 22 26 25 23 22 21 20 21 20 19 20 23 26 29 33 38 40 41 41 41 41 42 42 43 44 46 48 48 48 48 50 53 56 57 58 57 56 57 64 71 75 73 70 68 67 67 68 68 67 66 64 65 65 64 63 59 55 53 53 51 49 49 46 39 34 33 33 35 42 50 57 60 65 69 67 67
6 6 6 8 8 7 6 6 6 8 11 10 10 13 14 14 12 12 13 16 19 21 22 22 20 20 19 19 20 21 23 26 28 30 32 34 36 36 36 36 37 38 40 41 42 43 44 45 47 48 49 50 52 54 56 59 62 62 61 63 69 75 79 79 78 76 75 75 75 75 75 73 74 75 74 70 61 53 52 53 52 49 43 36 32 30 29 26 26 29 36 47 55 60 65 63 62
6 6 8 9 9 11 9 6 8 9 10 14 17 18 15 11 10 13 15 16 18 20 21 21 21 22 24 25 27 30 32 33 35 37 37 37 38 39 39 40 41 43 44 45 45 44 44 43 44 44 45 45 47 51 54 56 58 60 62 66 70 73 77 81 84 84 85 85 83 83 83 81 79 78 77 73 67 62 60 58 54 46 36 32 32 30 29 27 26 26 28 38 47 52 57 55 55
8 8 9 11 11 12 10 8 8 8 16 24 23 22 19 13 12 13 15 18 19 21 23 25 28 31 33 36 38 39 40 40 41 44 46 48 49 50 50 50 50 49 48 45 42 40 39 39 39 40 40 40 39 40 44 48 51 54 56 61 68 73 77 80 84 86 89 92 91 90 89 88 86 83 79 76 72 69 65 59 53 42 33 32 32 31 30 28 27 27 27 33 40 45 52 54 54
13 12 11 13 10 8 8 9 11 13 23 27 24 27 22 14 17 18 18 21 22 24 28 31 35 37 38 41 42 41 42 46 51 55 58 59 59 58 57 55 51 48 44 39 34 31 30 30 30 31 32 34 34 32 32 33 38 42 46 50 57 67 74 78 81 82 86 91 94 96 94 92 92 89 84 80 75 69 62 56 50 41 34 33 33 32 32 31 30 28 28 32 37 45 53 54 50
17 16 13 11 8 8 8 11 17 18 20 18 18 28 25 18 23 24 23 26 28 30 34 36 39 40 41 42 44 48 53 60 64 65 65 64 62 59 56 53 49 45 41 37 32 28 26 26 25 25 24 25 26 27 26 24 25 27 30 33 39 50 64 73 78 79 81 83 87 92 94 93 92 90 86 82 75 66 59 53 47 41 37 35 35 35 34 32 31 31 30 33 39 47 52 51 46
16 17 15 10 7 10 10 13 17 16 19 18 18 28 29 24 26 26 25 29 32 35 37 40 41 42 44 47 53 62 69 72 71 68 65 60 55 53 53 51 48 44 42 39 35 31 28 26 24 22 21 20 20 20 21 20 19 19 19 19 20 28 43 59 71 78 81 81 82 83 85 87 88 88 85 80 75 67 59 53 48 44 41 40 39 38 38 35 33 33 32 34 40 46 46 47 47
15 17 13 8 8 9 11 15 15 14 20 21 22 30 29 23 24 28 29 32 34 37 40 42 43 45 50 58 68 75 78 76 70 63 54 48 47 50 53 55 54 50 45 38 30 26 23 21 22 25 25 23 20 18 18 19 19 19 18 15 13 14 24 39 54 68 77 82 84 83 82 82 81 83 82 79 75 69 64 59 55 51 48 46 45 43 42 39 38 38 37 38 42 44 44 47 51
14 16 10 7 10 9 11 15 13 16 20 18 19 26 27 25 26 29 33 35 37 41 43 44 47 54 63 73 80 81 77 71 61 49 39 36 40 43 43 45 46 41 33 27 22 21 24 27 33 39 41 37 33 29 27 26 26 26 22 17 13 12 16 24 36 50 64 74 81 85 87 86 83 80 79 79 77 73 69 66 62 59 55 52 50 49 47 44 43 42 41 43 44 46 49 51 53
16 15 8 8 12 12 16 17 14 17 20 16 16 22 31 36 33 33 37 40 43 46 47 49 57 69 80 85 82 76 70 62 49 36 27 25 27 28 28 29 29 26 22 22 24 30 39 48 54 58 58 57 53 47 43 40 37 35 30 25 20 17 18 22 26 36 48 59 67 76 81 84 86 86 82 79 80 79 74 69 65 61 58 56 53 51 49 47 45 44 44 47 50 52 52 50 50
19 17 12 13 17 19 21 21 22 23 21 19 19 29 43 44 38 40 42 42 45 48 53 61 71 81 84 79 70 67 66 55 39 27 22 22 24 25 24 24 26 26 25 27 32 42 53 59 64 66 65 65 65 61 56 50 46 42 37 34 31 30 30 31 31 34 43 50 56 64 69 68 70 80 88 86 82 82 81 76 71 65 60 57 54 52 50 48 46 47 49 52 52 51 50 49 48
23 23 23 23 26 30 28 25 27 26 24 22 24 37 46 39 35 38 39 41 47 55 67 79 85 87 79 68 65 64 55 37 24 23 25 28 29 27 24 25 28 28 30 38 48 58 64 66 69 72 70 70 71 70 65 58 53 49 44 40 39 39 40 40 38 37 41 46 50 55 60 58 53 58 77 91 91 86 83 81 79 75 68 62 60 59 56 53 50 50 52 51 50 51 53 55 55
27 28 32 34 37 48 48 36 32 32 29 25 27 41 44 33 30 34 34 39 47 59 75 86 91 92 83 71 61 46 29 20 24 31 34 33 34 32 27 24 26 32 44 57 65 71 74 74 78 78 74 75 78 76 72 66 61 59 55 50 45 43 42 43 43 40 38 39 42 45 48 51 49 46 58 80 95 94 87 84 83 81 77 71 68 69 67 62 56 54 54 54 56 59 60 61 61
29 25 35 44 45 56 57 42 38 42 39 36 39 43 38 32 35 36 35 41 51 63 73 76 78 81 79 66 43 22 17 23 32 37 36 36 38 39 34 26 29 47 65 73 75 76 79 81 84 83 79 79 81 81 78 74 70 68 66 62 56 49 44 43 44 44 41 37 36 37 39 41 45 47 49 63 83 93 91 90 89 85 84 80 73 73 74 71 66 63 63 64 65 65 65 65 65
30 27 43 49 42 51 56 44 43 50 51 50 48 41 33 33 38 39 44 55 61 61 61 64 72 76 66 44 21 16 24 30 33 36 38 40 41 43 42 36 42 64 78 80 79 79 80 82 83 85 85 82 82 83 83 81 79 76 73 71 65 57 50 48 47 46 45 42 37 35 35 37 42 46 47 52 63 75 81 88 93 92 91 91 85 78 77 78 77 74 71 68 68 68 67 67 68
30 39 48 41 36 52 61 52 47 51 55 49 40 37 36 35 42 55 62 61 56 53 59 70 74 60 37 24 21 25 32 35 35 41 48 50 50 54 56 52 59 75 82 79 77 77 81 83 82 84 87 86 83 82 83 83 83 82 79 76 71 65 58 54 53 50 46 44 41 37 34 34 37 40 40 41 43 48 56 66 78 86 91 97 98 91 84 81 80 79 77 73 70 70 71 70 70
35 46 44 33 41 59 63 60 56 53 54 46 38 44 45 39 48 64 63 56 61 71 77 76 63 38 28 44 54 42 36 40 42 46 56 63 67 71 73 72 78 85 85 81 77 76 82 86 86 87 87 87 85 81 81 82 84 87 86 82 78 73 68 64 59 55 50 45 43 42 37 32 31 31 32 34 34 34 36 40 48 59 71 84 95 98 96 91 86 81 79 79 76 73 72 72 72
31 38 38 37 53 64 60 61 62 61 63 57 47 49 48 45 53 62 63 68 82 88 80 69 56 43 49 71 74 52 41 45 50 57 68 76 80 82 83 84 86 84 85 88 85 80 85 90 92 93 90 87 86 83 81 82 86 90 91 88 84 80 78 75 71 65 57 49 44 41 39 33 29 29 27 28 29 30 30 31 31 34 41 53 67 79 87 93 96 92 84 80 79 77 75 72 72
29 33 40 44 55 63 61 61 59 59 67 67 60 55 48 49 61 68 73 80 83 79 74 72 62 48 52 68 67 53 48 50 56 69 81 86 84 81 83 86 85 84 89 96 93 87 88 91 91 92 91 87 86 84 81 81 84 88 90 89 86 82 80 78 78 74 66 57 49 42 38 34 31 29 28 27 27 28 29 29 29 28 28 30 37 46 56 65 79 91 94 90 83 79 77 74 73
32 42 58 61 64 70 73 72 65 62 66 69 73 69 52 53 69 72 72 77 77 72 72 72 60 47 51 58 53 51 57 62 69 81 88 92 87 79 77 77 77 86 97 101 96 90 91 92 89 87 88 87 86 86 84 81 82 85 86 86 84 82 80 77 75 73 69 63 56 48 43 39 35 33 33 32 32 33 34 34 34 32 30 27 25 27 31 37 45 60 79 93 95 90 82 77 76
38 50 67 76 82 83 79 73 66 69 77 78 81 76 62 65 74 65 62 71 74 76 80 71 56 53 56 51 48 58 69 72 80 93 98 98 95 86 80 76 78 90 99 97 92 90 90 90 89 90 90 89 88 89 89 86 83 82 82 84 85 84 82 79 76 72 68 64 60 56 51 47 44 42 41 41 41 42 42 42 41 39 37 34 29 24 22 24 27 31 43 62 82 94 94 89 83
Wind_Speed
10 10 10 12 14 16 18 18 17 17 17 19 23 20 21 24 24 24 24 23 22 24 25 23 22 21 19 20 23 27 29 29 27 25 24 23 28 29 27 28 28 28 28 29 29 29 27 24 22 20 20 20 20 20 19 19 19 18 18 17 17 16 16 16 16 16 17 17 17 16 17 16 16 16 15 15 15 15 14 14 14 13 13 14 14 14 15 14 14 15 15 14 14 13 14 14 14
12 11 11 12 13 15 18 18 16 16 16 21 23 20 24 28 28 26 23 23 23 23 22 19 19 20 22 26 29 31 32 28 25 25 26 26 26 26 27 28 28 29 28 28 28 27 26 24 22 20 19 20 19 19 19 19 19 18 17 17 16 16 16 16 16 16 16 16 17 17 17 17 16 16 16 15 15 15 15 15 14 14 14 14 14 14 15 15 15 15 15 14 14 13 14 14 14
14 13 13 13 13 15 18 19 18 18 18 23 21 19 26 26 25 24 23 23 21 20 20 21 23 26 29 32 31 32 32 27 23 24 25 24 24 25 26 27 27 28 27 27 27 26 25 23 22 20 19 19 19 19 19 18 18 17 17 16 16 16 16 16 16 16 16 16 16 16 16 16 16 16 16 16 16 16 15 15 15 14 14 14 15 15 15 15 15 15 15 14 14 13 14 14 14
17 15 15 15 15 16 17 19 20 19 21 24 20 20 25 23 22 23 22 21 20 21 25 28 31 32 32 32 32 32 29 24 23 24 24 23 23 24 25 26 26 27 27 27 26 25 24 22 21 20 20 20 19 19 19 18 17 17 17 16 16 16 16 16 16 16 16 16 16 15 15 15 15 15 16 16 16 16 16 16 15 15 15 14 15 15 15 15 15 15 15 15 14 13 13 14 13
18 17 17 16 16 17 18 19 20 22 24 23 18 19 26 26 24 23 23 23 25 27 30 32 33 34 32 30 30 28 24 23 25 25 24 24 24 25 26 26 26 27 26 26 25 24 23 22 21 20 20 20 19 19 19 18 17 17 17 17 16 16 16 15 15 15 14 14 14 14 14 14 15 15 15 15 16 16 16 16 15 15 15 15 15 15 15 15 15 15 16 15 15 14 13 14 14
18 18 18 18 18 20 19 20 22 24 26 26 22 22 29 30 27 27 27 28 30 30 31 32 32 34 32 28 26 24 22 23 25 25 25 25 26 27 27 28 28 27 26 25 23 23 23 21 21 21 20 20 20 20 19 18 18 18 17 17 17 16 16 15 14 14 13 12 12 12 12 12 13 13 14 14 15 15 16 16 16 15 15 15 15 15 15 15 15 16 16 16 16 15 14 14 15
15 17 18 18 20 21 20 21 22 21 25 30 28 27 30 29 28 29 30 31 31 31 30 30 30 31 29 26 24 22 22 24 25 25 25 26 28 28 27 27 27 27 26 24 23 22 21 21 21 21 21 21 21 21 20 19 18 18 19 18 18 17 16 15 14 13 12 12 11 11 11 11 11 11 12 13 14 14 15 16 16 16 16 16 16 15 16 16 16 16 17 17 17 17 16 14 15
11 13 16 17 19 22 21 23 25 24 27 30 28 28 28 28 29 29 30 30 30 29 28 28 28 29 27 25 25 23 23 25 25 25 26 28 28 26 24 23 24 25 24 23 22 21 21 20 20 21 21 21 21 21 20 20 19 19 20 19 19 18 18 17 15 14 13 12 12 11 11 11 11 10 11 11 12 13 14 15 16 16 17 17 17 17 17 17 17 17 17 18 18 18 18 16 15
7 10 14 14 17 20 22 25 27 28 29 28 26 26 27 27 28 27 27 27 27 26 26 26 27 29 29 28 26 24 25 26 26 26 27 27 26 24 23 22 22 22 22 22 21 21 20 20 21 21 21 22 22 22 21 21 20 20 20 21 20 20 19 18 16 15 14 13 13 12 12 12 11 11 11 11 12 12 13 14 15 15 16 17 18 18 18 18 18 19 19 19 19 20 19 17 16
5 7 11 12 14 17 19 22 23 26 26 24 24 24 25 25 24 24 24 24 24 25 25 26 28 29 30 30 27 24 25 26 26 26 25 25 25 25 25 24 23 21 20 20 21 21 21 21 21 21 22 22 22 22 21 21 21 21 21 22 22 21 20 19 18 17 16 15 14 13 13 13 13 13 13 13 13 13 14 14 15 15 16 17 17 18 18 19 19 20 20 21 21 21 21 19 18
4 6 9 10 13 14 14 17 19 22 22 21 20 20 20 20 21 22 23 23 24 25 25 27 29 30 31 30 26 24 25 26 25 25 25 26 26 27 27 26 25 23 21 20 20 20 21 22 22 22 22 22 22 22 21 22 22 21 22 23 23 22 21 20 19 18 17 16 16 15 15 14 15 15 15 15 15 16 16 16 16 16 17 17 17 18 18 19 19 20 21 21 22 22 22 20 20
2 5 6 8 11 13 14 17 18 18 17 16 16 16 17 17 19 21 23 25 24 25 25 26 29 30 31 29 24 23 25 26 27 26 27 28 28 28 28 26 25 24 22 21 20 20 20 21 21 22 22 22 22 22 22 22 22 22 23 24 24 23 22 21 20 18 18 18 17 17 16 16 16 17 17 17 18 18 19 19 19 19 19 19 19 19 19 20 20 20 21 21 22 22 22 21 22
3 5 5 7 11 13 15 16 17 17 15 15 15 15 17 18 20 23 25 26 24 24 25 25 27 28 28 26 22 23 26 26 26 27 28 28 28 28 26 25 25 24 23 22 21 20 20 20 21 21 22 22 22 22 22 23 23 23 23 24 25 24 23 22 21 19 19 19 18 18 18 18 18 18 19 19 20 20 21 21 22 22 22 22 22 22 21 22 22 22 22 22 22 23 22 22 23
5 7 6 8 12 13 14 15 16 17 16 16 17 18 19 19 22 24 25 25 22 22 24 23 24 25 25 24 21 22 25 25 26 27 27 27 26 25 24 23 23 23 23 22 21 21 21 20 20 20 21 21 22 22 23 23 23 24 24 24 24 24 24 23 22 20 19 19 19 19 19 19 20 20 21 21 21 22 22 23 24 24 24 24 24 24 24 24 24 24 24 24 24 24 24 24 23
7 8 9 11 14 14 15 15 16 18 17 17 20 22 21 20 22 23 23 23 20 19 22 21 21 21 22 23 21 22 25 25 25 25 25 24 23 23 22 21 21 22 22 21 21 21 20 20 20 20 20 20 21 22 23 24 23 24 24 24 24 25 25 24 22 21 20 20 20 20 20 21 21 22 22 22 23 23 24 24 25 26 26 26 26 26 26 26 26 26 26 26 26 26 26 26 25
9 9 11 12 15 16 17 17 17 17 17 19 22 23 22 20 21 21 20 21 19 17 19 19 20 20 19 21 22 23 25 24 23 22 21 21 21 20 19 19 19 20 19 19 19 20 20 20 20 19 19 19 20 21 22 23 23 23 24 24 25 25 25 24 23 22 21 21 21 21 21 22 23 23 23 23 23 23 24 24 25 26 27 27 27 28 28 28 28 28 28 28 28 28 29 28 27
10 11 12 14 16 17 17 18 18 16 18 21 22 22 22 20 20 20 19 19 19 17 18 18 18 18 19 22 25 26 25 24 23 21 20 18 18 17 16 16 16 17 17 17 18 18 19 19 19 20 20 20 19 20 21 22 22 23 24 25 25 26 25 25 24 23 23 22 22 22 23 23 23 23 22 23 23 23 23 24 24 25 26 27 27 28 28 28 29 29 29 29 30 30 30 30 29
12 13 14 15 16 17 16 17 18 18 20 22 22 21 21 20 20 20 19 18 19 17 17 17 15 16 20 25 27 27 26 26 26 25 23 20 19 17 16 15 14 14 15 15 16 16 17 18 19 19 19 20 20 20 20 21 23 23 24 25 26 26 25 25 25 25 24 24 24 24 24 23 23 23 22 22 22 22 23 23 23 24 25 25 26 27 27 28 28 28 29 29 29 30 31 30 30
12 14 15 15 15 15 15 16 18 19 21 22 21 21 20 20 21 22 20 17 18 18 16 14 13 15 20 24 25 26 26 26 27 26 25 24 22 21 20 18 17 16 15 14 14 15 16 17 18 19 20 21 22 21 21 22 23 24 24 25 26 26 26 26 26 26 25 25 26 25 25 24 24 24 23 22 22 22 22 22 23 23 23 24 24 25 26 26 26 27 27 27 28 29 30 29 30
12 12 13 13 13 14 14 15 17 19 21 21 20 19 19 20 20 20 18 15 15 17 15 13 12 13 15 19 19 19 20 20 21 22 22 23 23 23 23 22 22 20 19 18 16 16 17 17 18 19 20 22 22 23 23 23 23 24 25 26 26 26 26 27 27 28 27 27 27 26 26 25 25 25 24 22 21 21 21 21 22 22 22 22 23 24 24 25 25 25 25 25 27 28 28 28 28
11 10 11 12 12 13 14 15 17 18 19 19 19 18 18 18 15 15 14 12 12 13 15 15 14 13 12 14 14 13 13 14 15 16 18 19 20 22 23 23 23 22 21 20 19 19 19 19 19 20 21 23 23 24 24 24 25 25 26 26 27 26 26 27 28 29 29 29 29 27 26 26 26 26 24 22 21 21 21 21 22 22 22 22 22 22 23 24 24 24 24 24 25 26 27 27 27
9 8 9 10 12 13 14 16 17 17 17 18 17 17 16 12 10 11 10 9 11 13 15 15 12 10 9 11 13 13 12 12 13 13 14 15 16 18 19 20 22 22 22 21 21 22 22 22 21 22 22 23 24 25 26 27 28 28 28 28 28 27 27 28 29 30 31 31 29 28 27 26 27 27 25 23 22 21 22 21 22 22 22 22 22 22 23 23 23 23 23 24 24 25 26 26 26
8 8 7 9 13 14 14 15 16 17 17 17 16 15 11 5 7 7 7 7 10 12 13 12 9 8 9 10 12 14 15 14 14 14 14 14 15 15 16 16 18 21 23 24 25 24 23 24 24 24 23 22 23 24 26 28 29 29 30 30 30 29 28 29 30 31 32 31 30 28 28 27 27 27 26 25 24 23 22 22 22 23 23 23 23 23 23 23 24 23 23 23 23 24 25 25 26
8 8 7 10 14 13 13 13 15 15 16 15 13 10 5 3 5 4 5 6 8 9 9 9 10 9 10 11 13 15 16 17 16 16 16 15 15 14 15 14 15 17 20 24 26 27 26 26 27 27 26 25 25 25 26 27 27 28 30 31 31 30 29 31 31 31 32 31 31 30 29 29 28 28 27 26 25 24 24 23 23 23 23 24 24 24 23 24 24 24 24 23 23 24 24 25 25
8 8 8 11 10 10 12 14 13 15 16 13 9 5 2 4 5 5 4 5 5 7 9 10 11 11 12 13 15 16 16 17 17 17 17 16 15 14 14 14 14 14 16 20 25 28 28 27 28 28 28 29 29 29 29 28 27 28 30 31 32 31 31 31 30 31 32 32 32 32 31 30 29 29 28 27 26 26 25 25 24 24 24 24 24 25 24 24 25 25 25 24 24 24 24 25 26
8 9 10 8 6 9 14 14 12 14 16 12 11 7 4 6 6 5 5 5 6 7 10 14 14 14 16 17 18 18 18 18 18 18 18 18 17 16 16 16 15 14 15 17 21 26 28 28 28 28 29 31 33 34 33 31 29 30 30 30 31 32 32 31 31 32 32 32 33 33 33 33 32 31 29 29 28 28 27 26 25 24 24 24 24 24 24 25 25 26 26 25 25 25 25 25 26
10 10 12 8 8 12 15 13 12 16 18 14 15 14 8 6 6 7 7 6 8 9 12 16 18 18 20 22 22 21 20 19 19 20 20 20 20 19 19 19 18 16 16 17 19 23 27 28 29 29 30 32 34 35 36 35 34 33 32 31 32 33 33 33 33 32 32 33 33 33 34 34 34 33 32 31 30 30 29 28 26 25 24 24 24 24 24 25 26 26 26 26 26 26 25 26 26
10 10 14 12 10 15 16 16 14 16 20 16 17 20 15 10 8 9 10 9 10 12 14 17 20 21 22 23 23 23 22 21 21 21 21 22 22 22 22 22 20 18 18 18 19 22 26 28 29 31 32 32 33 35 37 38 38 38 37 36 35 35 35 35 35 34 34 34 34 34 34 34 35 35 34 33 32 31 31 29 28 27 26 25 24 25 25 26 28 28 28 27 27 27 27 26 26
11 8 13 15 15 17 17 19 17 17 20 16 17 20 21 18 14 14 12 11 12 14 17 20 22 23 24 24 24 25 24 24 24 23 23 23 23 24 23 22 22 20 19 19 19 21 25 28 30 32 33 33 33 34 37 39 40 41 41 41 40 40 39 38 38 37 37 36 35 34 34 34 35 36 35 34 33 33 32 31 30 29 27 26 26 26 27 28 30 30 30 29 29 29 29 28 27
16 9 11 17 18 19 19 19 17 17 18 16 15 14 21 24 22 21 17 14 15 17 19 21 23 25 25 25 25 25 26 26 26 25 24 23 22 22 22 21 20 20 19 19 20 20 22 25 28 31 33 34 34 35 36 38 40 42 44 44 44 45 44 43 42 41 40 40 38 37 36 36 37 36 36 35 34 34 35 34 32 31 30 29 28 29 29 31 32 33 33 33 32 32 31 30 30
19 14 14 20 21 20 21 21 19 20 19 18 15 10 18 25 25 25 23 20 19 20 22 23 24 24 25 25 25 26 26 27 26 25 25 23 22 21 21 20 20 20 20 20 20 21 21 22 23 26 29 32 34 35 36 37 39 41 43 45 46 47 47 47 46 46 45 44 42 41 40 39 39 38 38 37 36 36 37 36 35 34 33 31 31 32 33 34 35 35 36 36 35 35 34 34 33
20 19 18 22 23 22 23 22 21 23 22 21 19 12 19 25 24 25 24 24 25 25 25 25 24 23 24 25 25 25 26 27 27 26 25 24 23 23 22 22 22 22 22 22 22 22 22 21 22 23 25 28 31 33 35 37 38 40 42 44 47 49 49 49 49 48 48 47 45 45 44 43 41 41 40 40 39 39 39 39 38 37 36 35 35 35 36 37 38 38 38 38 38 38 37 37 36
23 21 20 21 24 26 25 22 22 26 26 24 21 19 22 24 23 23 24 27 30 30 28 25 24 24 23 24 24 25 26 27 28 28 27 27 26 26 26 26 25 25 25 25 25 25 24 24 23 23 24 26 28 30 33 35 38 40 41 43 46 48 50 51 51 51 50 49 48 47 46 45 44 44 44 43 43 43 42 41 41 40 39 38 38 38 38 39 40 40 41 41 41 40 40 39 39
25 22 22 24 26 27 28 26 24 29 28 25 24 23 23 22 21 23 26 32 34 32 28 25 24 24 23 23 23 24 25 27 31 32 33 33 32 31 30 29 29 28 28 28 28 28 28 27 27 26 26 26 27 29 30 32 35 38 41 43 45 47 49 51 53 53 53 51 50 49 48 48 47 47 47 46 46 46 45 44 43 43 41 41 41 41 41 41 42 42 42 43 43 43 43 42 41
21 20 23 26 26 26 28 27 27 32 30 27 26 25 23 21 21 25 30 34 34 32 27 25 25 25 23 23 23 23 24 29 34 36 37 38 37 35 34 33 32 32 32 31 31 31 31 30 30 29 29 29 29 29 30 31 32 34 38 41 44 46 47 49 51 53 54 53 52 51 51 50 50 50 49 48 48 47 46 46 45 44 43 43 43 43 42 42 42 43 44 44 44 44 45 45 44
17 18 24 26 27 28 28 26 29 32 31 30 29 26 23 21 22 27 32 32 31 31 28 25 24 23 22 23 25 26 30 37 40 40 39 38 36 35 35 34 34 35 35 35 34 34 34 34 33 32 32 31 31 31 31 32 32 32 34 38 41 44 46 48 49 50 51 52 53 52 52 52 52 52 51 50 50 49 48 47 47 46 45 44 43 41 41 41 42 43 44 45 45 45 47 47 46
17 19 26 28 29 32 30 28 30 30 31 31 28 25 22 21 25 30 31 29 29 30 28 25 24 23 25 29 32 34 39 43 43 42 40 38 36 34 34 34 35 36 36 37 37 36 36 37 37 36 35 34 34 34 34 34 34 34 34 35 38 40 43 46 47 48 49 50 51 52 53 54 54 54 53 53 52 50 50 49 49 48 45 43 40 40 40 41 43 44 45 46 47 47 48 47 46
19 21 29 28 30 35 31 29 31 30 30 30 24 22 23 24 29 30 28 26 27 28 28 27 27 28 33 38 40 41 43 44 43 43 42 40 38 37 36 36 36 37 38 39 40 40 39 39 39 39 38 37 37 36 36 36 36 37 37 36 36 38 39 42 44 46 47 48 49 50 52 53 54 54 55 55 53 52 52 51 51 48 44 41 40 40 41 42 44 45 47 48 48 48 48 48 47
21 23 29 28 29 35 34 32 33 30 29 25 18 20 25 28 29 27 24 25 26 27 29 30 31 33 37 41 43 44 45 44 43 42 41 41 42 43 44 44 43 43 42 42 42 43 44 44 44 43 42 41 40 40 39 39 38 38 39 39 38 38 38 39 41 43 45 47 47 48 49 50 50 49 48 49 51 52 52 52 51 47 43 42 41 41 42 43 45 46 47 49 49 49 49 50 48
22 24 28 26 29 33 35 36 33 29 24 16 15 22 27 26 23 23 24 26 27 28 29 31 33 36 39 41 42 42 42 42 42 41 42 43 45 47 48 49 50 50 51 51 50 51 51 51 52 51 50 48 47 45 44 43 42 41 41 41 40 40 39 39 40 41 42 44 46 47 47 47 46 44 43 45 49 50 51 52 50 47 45 44 42 43 44 44 44 46 47 49 50 49 50 50 48
22 25 25 26 31 30 30 32 31 27 18 11 17 22 22 21 22 26 26 26 27 28 30 32 33 35 37 38 38 38 40 42 44 45 45 45 46 47 48 50 52 54 56 59 60 61 62 62 61 60 59 57 55 53 51 49 48 47 46 44 43 43 42 41 40 41 41 41 43 45 46 45 45 46 47 48 50 50 49 49 49 48 47 45 44 45 46 45 45 46 48 49 50 50 50 51 49
21 24 25 27 32 29 28 28 26 24 14 14 21 14 14 23 27 27 25 25 27 29 31 33 34 36 37 37 39 41 44 44 44 45 46 47 49 50 52 54 56 57 60 62 65 67 69 70 69 67 65 63 61 60 59 57 55 53 53 51 49 47 46 44 42 41 41 41 42 43 44 45 46 47 49 49 50 50 49 49 50 50 49 48 47 48 47 47 47 47 48 49 50 49 50 50 50
20 21 25 30 30 26 27 23 19 19 17 19 18 7 13 27 28 24 25 26 27 29 31 34 35 36 38 40 43 44 44 44 45 47 49 52 55 57 58 60 60 61 62 64 67 69 71 72 72 71 68 65 63 62 62 62 61 59 58 58 57 55 52 49 47 45 44 43 42 42 43 44 45 47 48 49 49 50 51 51 52 51 51 50 50 49 49 49 49 49 49 50 50 49 50 50 50
21 21 27 34 30 25 23 16 14 22 24 18 10 7 15 23 22 24 30 29 28 30 31 33 35 38 41 44 45 44 44 47 51 54 58 61 63 63 62 62 63 63 63 65 67 69 71 71 69 68 65 64 62 60 59 60 61 61 61 61 62 61 58 55 52 50 49 47 46 44 43 42 43 44 46 47 48 50 52 53 53 53 52 52 52 51 51 50 50 50 50 50 50 50 50 50 50
24 22 30 36 31 28 20 11 20 28 21 10 5 8 13 19 25 28 31 29 27 29 31 34 39 42 45 44 43 44 46 52 58 64 67 67 65 61 60 60 62 63 64 66 68 67 66 64 61 58 57 56 56 55 55 55 56 57 58 60 61 61 60 59 57 55 53 51 51 49 47 44 43 42 42 44 45 47 50 52 53 53 53 53 53 53 52 52 52 51 51 52 51 51 50 50 50
25 24 36 37 30 31 19 13 29 26 12 6 8 12 11 18 30 28 24 25 25 29 34 39 42 42 42 41 42 47 52 58 65 69 69 66 63 61 60 59 59 61 62 62 60 57 55 53 50 48 49 49 49 49 50 50 52 53 54 56 56 57 57 57 58 57 56 55 53 53 52 50 48 45 43 42 43 44 47 49 51 52 53 54 54 54 53 53 53 52 52 52 52 51 51 50 51
24 29 44 40 32 32 15 16 31 17 7 11 16 21 15 14 22 20 18 22 26 32 38 40 40 37 37 40 46 53 59 65 70 71 69 66 64 63 61 59 58 57 55 52 49 48 45 43 42 44 45 45 46 46 46 46 47 49 50 51 50 50 51 52 53 54 55 56 56 55 53 53 53 52 49 46 44 43 44 46 48 51 52 54 55 54 54 53 53 53 53 52 51 51 51 51 51
24 32 44 37 29 26 10 12 20 6 7 18 22 25 17 10 14 16 20 27 33 36 38 37 36 36 39 45 52 58 63 69 72 71 68 65 64 62 59 55 53 50 48 47 45 43 40 39 41 43 43 43 43 43 43 43 43 45 46 46 46 45 46 47 49 51 52 53 55 56 53 51 52 54 56 54 51 48 47 46 47 49 51 53 54 54 54 54 54 54 53 52 51 50 50 50 50
25 32 40 29 17 15 8 9 10 5 14 26 29 26 17 14 18 24 30 36 38 36 33 33 34 38 47 54 58 62 67 70 68 63 62 63 63 60 55 51 49 48 46 44 41 39 39 40 42 43 42 41 40 40 40 40 40 41 42 42 42 42 42 43 45 47 49 50 51 53 53 51 50 51 55 57 56 54 53 51 50 49 49 50 52 53 53 54 54 53 52 51 51 50 49 49 49
24 30 31 19 9 7 7 8 9 9 20 36 40 27 17 18 23 30 38 42 41 37 33 34 38 43 51 60 67 70 68 64 60 61 64 65 62 56 52 49 47 46 43 40 38 39 41 41 41 42 40 39 38 38 37 38 38 38 38 38 39 39 39 40 41 43 45 46 47 48 49 49 49 49 51 53 55 55 54 54 53 52 51 50 50 50 50 51 52 52 51 51 51 50 50 49 48
20 29 25 15 9 5 5 7 10 12 21 37 36 18 12 19 26 36 43 41 36 34 35 42 45 46 53 65 73 70 62 58 61 66 67 63 58 54 50 47 44 42 39 38 39 40 41 42 42 41 40 39 38 37 35 35 36 36 35 35 35 36 37 38 39 40 42 43 44 44 45 46 46 46 47 49 51 53 53 52 52 53 53 52 51 50 49 49 50 51 51 51 51 50 50 50 48
18 28 23 17 13 7 11 14 18 20 20 22 20 14 17 24 31 38 36 29 29 36 44 49 48 48 58 70 71 63 59 63 66 67 66 61 56 52 48 43 40 38 38 39 40 41 42 43 42 41 40 39 38 36 34 33 34 34 34 33 33 33 34 37 37 38 39 40 40 40 41 41 42 42 42 43 45 48 50 51 51 51 51 52 53 53 51 50 49 49 50 50 50 50 50 50 49
20 25 22 22 15 7 11 17 22 20 13 13 17 21 26 26 27 26 22 26 38 48 51 48 48 57 68 69 64 62 65 67 67 66 64 59 52 47 44 39 37 37 38 40 41 43 45 45 44 42 40 39 37 35 33 32 32 33 33 32 31 31 32 34 35 36 37 38 39 38 37 37 37 38 38 38 39 41 43 46 49 50 51 51 52 53 54 52 50 49 49 49 49 49 50 49 49
22 23 25 25 11 2 4 11 16 12 8 13 19 26 30 25 18 18 25 37 44 44 45 50 59 69 70 60 56 65 70 67 67 64 57 51 46 43 40 37 37 38 39 41 43 46 49 48 46 44 41 39 37 35 32 31 31 31 31 31 30 30 30 31 32 34 36 37 38 37 37 36 36 36 36 37 37 37 37 39 42 45 48 49 50 51 52 53 53 51 50 48 48 48 49 49 49
25 26 28 24 8 3 8 9 10 10 9 11 17 26 29 21 17 25 36 39 36 39 51 60 64 67 63 54 56 68 72 66 62 56 49 46 43 41 41 40 40 40 41 43 47 51 53 51 48 45 42 39 36 34 32 30 29 29 30 31 30 29 29 30 31 32 34 36 37 37 37 37 37 37 37 37 38 37 37 37 38 39 41 43 46 48 49 51 53 53 52 50 49 48 49 49 48
31 32 30 26 13 8 13 12 11 13 11 11 16 20 18 16 23 31 33 34 39 50 58 58 59 64 65 61 64 72 69 59 53 49 47 46 44 44 45 44 45 44 43 45 51 55 55 53 49 45 42 39 36 33 31 30 29 29 29 30 30 29 29 29 30 31 33 35 36 37 38 38 39 39 39 39 39 39 40 40 40 40 39 39 41 43 45 47 50 52 53 52 51 49 49 49 48
31 31 27 27 21 14 13 13 14 12 9 11 13 14 20 25 26 27 30 37 48 56 56 54 60 67 71 71 72 69 60 53 52 51 50 49 49 49 48 48 49 47 46 49 56 58 56 52 50 46 42 39 36 32 30 30 29 29 29 29 29 29 30 30 31 32 34 35 36 37 38 39 40 41 41 41 40 41 42 42 42 43 42 42 41 41 42 43 46 49 51 53 52 51 50 48 48
29 28 24 23 21 17 13 10 13 13 11 15 14 16 29 28 19 27 39 44 51 52 49 53 64 70 73 74 69 62 56 55 55 54 52 53 54 53 53 53 51 48 51 56 59 57 54 51 48 46 43 39 35 31 29 29 30 30 29 28 28 29 30 30 31 33 34 35 36 37 38 39 40 41 41 41 41 41 42 43 43 44 44 44 44 43 43 42 42 44 46 50 52 52 52 49 49
Wind_Direction
232 228 225 222 223 227 231 233 243 251 249 256 258 259 262 265 270 277 285 291 292 293 293 293 292 293 295 295 297 299 299 297 299 294 286 287 293 298 298 297 298 297 296 296 297 297 295 292 289 285 280 278 277 275 273 273 274 276 277 276 272 268 265 263 262 261 261 260 256 254 252 250 249 247 243 239 236 235 235 235 235 237 237 238 238 238 236 232 229 227 228 228 230 230 233 235 234
234 232 229 228 227 226 232 234 241 253 252 257 259 256 260 269 276 281 285 287 288 290 292 292 290 292 294 295 297 299 297 297 299 295 292 293 294 294 294 294 294 294 295 295 295 293 292 289 285 279 275 275 274 272 270 271 272 274 274 270 266 263 262 261 261 260 259 260 259 258 256 253 250 248 245 242 239 237 236 236 235 236 237 239 240 241 240 237 235 234 232 231 232 233 237 237 235
235 234 231 230 230 228 233 235 238 248 251 257 261 262 268 275 280 282 284 284 287 289 291 290 290 293 296 297 299 298 296 300 302 299 296 295 293 292 290 290 291 292 293 293 291 289 288 286 282 276 273 273 271 268 267 268 271 272 269 264 260 258 259 259 259 259 258 259 260 259 259 259 256 253 251 247 245 242 241 240 239 239 240 241 241 242 244 243 241 240 239 238 237 236 241 241 239
236 234 233 232 234 235 236 238 239 245 251 257 267 271 273 279 282 283 285 285 286 288 291 293 295 296 298 299 298 297 298 301 301 299 296 293 292 291 290 289 289 289 290 289 288 285 283 282 277 273 271 270 268 265 265 267 270 270 265 259 257 257 256 256 256 257 258 259 259 260 260 261 261 259 257 255 252 250 248 246 245 244 244 245 246 246 247 249 249 250 248 247 247 245 248 249 246
237 235 235 233 234 236 235 240 241 242 248 255 265 273 275 281 284 284 285 286 288 291 293 295 297 297 296 297 297 298 302 300 297 297 295 294 292 291 290 288 287 286 286 286 285 282 279 277 273 270 270 268 265 263 263 267 269 267 262 258 255 255 254 254 254 255 257 258 259 260 260 261 262 261 261 260 258 255 253 252 250 248 248 248 250 250 250 250 252 255 255 255 254 253 252 255 254
238 236 236 234 234 237 237 242 245 245 249 254 259 269 276 282 284 284 287 289 291 293 295 296 296 296 295 296 296 298 301 297 294 294 293 293 291 290 289 288 287 285 284 284 282 278 275 273 269 268 268 266 263 261 262 265 268 265 260 256 254 252 250 250 251 253 254 256 258 260 260 261 261 260 260 260 260 259 257 255 254 251 250 249 250 251 251 251 252 255 257 258 257 255 253 255 258
241 236 235 234 236 239 239 243 247 249 254 259 261 268 275 281 284 286 291 294 295 296 296 296 296 295 296 298 296 298 299 294 293 293 293 292 291 291 290 290 288 285 284 282 278 274 272 269 266 266 265 263 260 259 260 263 265 263 257 253 251 248 247 246 247 248 249 251 254 256 256 256 257 256 255 256 257 258 257 256 255 254 252 251 250 250 251 251 252 254 256 257 257 256 252 252 256
246 238 235 233 236 240 240 245 250 253 261 268 271 273 277 281 286 291 295 297 298 298 299 299 298 296 296 297 297 302 300 295 294 293 293 293 292 292 290 289 287 286 284 280 276 272 269 265 264 263 262 260 258 257 258 261 263 261 254 250 248 246 244 243 243 244 244 246 247 250 252 253 253 253 251 251 252 253 253 253 253 253 252 252 251 250 251 251 252 253 255 255 256 256 253 250 251
256 238 237 230 234 242 244 250 256 261 268 276 279 280 283 287 291 296 296 297 299 299 301 300 298 297 297 296 298 303 300 295 294 293 292 291 290 288 287 288 287 287 285 280 275 271 267 263 261 260 259 257 255 255 257 261 262 260 253 248 246 244 243 241 240 242 242 243 244 247 250 253 254 254 253 250 250 249 249 250 250 251 251 251 251 251 251 251 251 252 253 254 255 256 255 251 249
265 240 239 234 237 245 249 256 261 268 276 281 285 288 290 294 296 297 296 297 299 300 302 300 298 297 298 299 302 303 298 295 294 292 290 287 286 286 288 289 288 286 285 282 277 273 268 264 261 260 259 256 254 254 256 260 261 259 253 247 244 243 242 241 239 240 241 243 244 247 250 253 256 256 256 254 252 251 249 249 248 248 249 250 250 251 251 251 251 252 253 253 254 254 253 252 248
267 249 245 242 245 248 255 264 268 277 286 290 294 296 296 298 297 297 298 299 300 302 305 304 302 302 301 303 309 307 299 296 293 291 288 287 287 288 290 289 287 284 281 280 278 276 273 269 266 264 261 258 255 254 256 259 261 260 254 247 244 243 242 241 239 240 242 244 245 247 250 253 256 257 257 256 255 253 251 250 249 248 247 247 248 249 249 250 250 251 252 253 254 254 253 251 247
268 260 256 246 251 257 265 274 281 290 297 302 306 305 301 299 300 301 300 302 306 308 309 308 307 308 307 311 318 310 300 295 292 291 290 289 289 290 289 288 286 283 279 277 276 276 275 274 271 268 265 261 258 256 256 259 261 261 256 249 245 244 243 242 240 241 243 244 246 248 250 253 256 258 258 257 256 254 252 251 249 248 247 246 246 247 248 248 249 250 250 252 253 254 254 251 248
285 285 283 260 266 272 277 286 295 306 311 315 316 309 305 305 305 305 305 309 315 315 313 311 310 311 312 316 316 303 294 292 292 292 290 289 289 289 289 288 286 282 278 275 274 274 274 273 273 271 268 266 263 260 259 260 262 262 258 251 247 245 244 244 242 241 243 246 248 250 251 253 255 258 259 259 257 255 253 252 250 249 248 247 247 247 247 247 248 249 249 251 252 253 254 252 251
307 309 307 284 288 293 297 300 304 311 316 318 317 310 308 310 308 308 312 316 322 319 314 315 314 314 314 313 310 298 293 294 294 292 291 291 291 291 291 291 288 283 279 275 274 273 273 273 272 272 271 269 267 265 263 262 262 263 261 255 250 247 246 246 245 244 245 248 250 251 253 254 257 259 259 259 258 256 254 253 252 252 251 249 249 248 248 248 248 249 250 251 252 254 254 254 254
316 314 309 297 299 305 308 308 309 311 315 319 313 308 310 314 312 313 317 318 324 322 316 316 311 311 313 308 303 296 295 297 295 294 293 293 291 291 293 294 292 288 283 278 275 273 272 272 271 270 270 270 269 267 265 264 263 264 264 260 254 250 249 248 248 248 249 250 251 253 255 257 259 260 260 259 258 256 255 254 253 252 252 252 251 250 250 250 250 250 250 251 252 253 254 255 255
312 308 304 298 299 307 311 316 319 316 317 314 306 306 312 317 315 316 321 321 324 321 313 310 305 306 306 299 293 288 289 290 290 291 291 290 289 289 291 293 292 290 286 281 276 273 271 270 271 269 267 266 266 266 265 263 263 263 263 261 256 252 251 251 252 253 253 253 253 255 257 259 261 261 261 260 258 257 256 255 254 253 253 252 252 252 252 251 251 251 251 251 251 251 252 253 254
309 307 302 296 301 310 317 323 321 316 311 305 303 309 316 319 317 318 325 324 320 315 306 303 304 303 294 285 281 280 281 282 283 282 281 281 280 280 281 282 284 286 285 280 276 274 272 270 270 268 265 262 261 262 262 261 260 260 260 259 256 254 252 253 254 254 255 256 256 258 260 262 262 262 261 260 258 256 255 254 254 254 253 252 252 252 251 251 251 251 251 251 251 251 251 251 252
308 306 302 298 308 316 320 320 313 308 304 303 308 315 318 320 320 322 326 322 314 307 298 297 295 285 278 276 277 280 282 283 285 285 284 282 279 276 271 268 268 271 274 275 275 273 271 268 266 264 262 259 257 256 255 256 255 255 256 257 256 255 254 253 254 254 255 257 258 260 261 262 262 261 259 258 256 254 253 252 250 251 252 252 252 252 252 252 252 252 252 252 252 252 252 252 251
305 305 306 307 315 318 315 311 305 302 303 307 314 320 322 321 323 322 320 315 307 300 293 292 287 274 272 276 281 284 286 287 287 286 286 284 283 283 281 278 272 266 261 260 261 263 263 261 260 260 258 257 254 252 250 251 251 252 253 256 257 255 254 253 253 254 255 257 258 260 261 262 262 261 259 257 256 254 253 251 250 249 249 250 251 252 252 252 253 253 253 253 252 252 253 252 251
307 310 312 312 316 314 311 306 302 304 308 313 320 325 323 322 324 317 310 305 298 301 307 309 305 294 283 284 288 290 290 290 287 284 282 279 277 277 278 279 277 274 268 263 257 255 257 258 259 258 256 255 253 251 248 248 249 249 250 253 255 255 254 253 252 253 254 255 257 259 260 262 263 262 261 259 257 256 255 254 253 250 249 249 249 250 250 251 251 252 252 252 252 253 253 252 251
313 319 314 312 318 317 314 310 308 311 315 321 326 326 322 325 320 303 299 297 295 312 326 327 324 318 303 294 295 297 295 294 291 287 283 278 275 273 270 269 269 269 268 266 262 255 251 250 250 253 253 253 252 251 249 249 248 247 248 250 253 253 252 252 252 252 253 254 255 256 258 260 261 261 262 260 258 257 255 255 255 253 251 250 250 250 250 250 249 249 250 251 252 253 253 252 252
325 328 319 322 331 325 319 319 319 321 323 328 328 324 327 325 299 288 299 309 320 330 329 330 330 318 304 294 294 297 298 296 293 290 287 283 278 275 270 266 264 263 262 262 259 254 247 242 239 241 244 248 249 249 248 247 247 246 246 248 250 251 251 251 251 251 252 253 254 254 255 257 258 260 261 260 258 256 256 255 255 255 254 252 252 253 254 253 252 251 250 250 251 253 254 255 255
343 338 334 338 337 331 329 327 326 331 337 339 332 332 339 307 275 295 313 329 341 333 323 323 319 304 293 286 285 288 290 290 290 289 286 282 278 276 272 268 264 261 258 256 255 255 251 244 237 233 232 236 242 246 247 247 246 246 246 247 248 248 248 249 250 250 251 252 253 252 252 254 256 258 259 258 257 256 257 257 256 256 256 255 255 255 257 258 257 256 255 254 254 255 257 258 259
359 350 341 335 335 339 341 336 338 351 1 353 339 343 356 253 280 305 316 344 348 323 311 305 296 290 284 277 276 279 284 287 288 288 286 283 279 275 272 269 266 263 258 252 250 250 252 249 244 238 231 228 229 235 241 245 246 246 246 246 246 245 245 247 248 249 249 249 250 250 251 252 254 256 258 258 258 257 257 257 258 258 258 258 259 259 260 262 263 264 263 263 262 262 262 263 263
5 358 346 336 339 352 353 351 358 15 18 357 331 336 323 272 289 288 298 343 338 314 306 294 285 281 274 269 273 279 284 287 287 287 286 283 280 276 272 268 265 263 261 255 247 245 246 247 245 244 240 235 229 227 230 235 239 241 243 245 245 244 243 244 246 247 247 248 248 248 250 252 253 255 257 258 257 257 257 256 257 258 259 260 262 263 265 267 268 268 268 268 268 267 266 266 266
16 14 6 2 12 13 8 12 20 26 22 351 316 311 299 281 281 279 288 308 313 313 303 288 275 269 268 269 275 281 282 283 283 285 284 281 279 276 270 266 264 263 263 259 250 243 242 243 243 242 243 242 237 232 228 226 229 233 237 241 242 242 241 242 243 244 245 246 248 249 251 252 252 254 255 255 256 256 255 255 255 256 258 259 261 264 265 267 268 268 268 268 267 267 267 266 266
36 37 26 34 46 24 18 24 27 21 17 354 321 313 300 287 280 268 268 280 296 302 296 284 270 263 268 274 280 282 281 282 283 283 283 282 279 274 268 265 264 264 264 262 255 246 241 242 242 242 243 243 242 240 236 230 227 226 228 232 235 237 239 240 241 242 244 245 248 250 251 252 251 252 253 253 254 254 254 253 252 253 255 257 258 260 261 262 264 264 264 265 265 265 265 265 266
44 55 40 40 37 21 18 16 12 9 8 356 327 315 298 284 278 270 270 272 277 284 284 279 271 268 270 275 279 282 283 284 284 283 282 281 277 272 269 266 265 264 264 262 259 251 247 245 244 243 244 244 244 244 243 240 235 229 225 224 226 230 234 238 240 241 242 244 246 248 250 251 251 250 250 251 252 252 252 251 250 250 252 254 255 257 258 259 261 262 262 263 264 264 264 265 265
31 52 32 24 17 9 9 6 2 1 1 350 330 315 295 288 290 289 288 281 276 277 278 277 275 273 273 277 280 282 285 285 285 285 282 280 277 274 271 267 265 265 266 264 262 258 254 251 249 247 246 245 245 246 245 244 242 238 233 227 224 224 226 231 235 239 241 241 243 245 247 248 249 249 248 248 249 249 250 249 249 250 251 253 254 256 257 258 260 262 263 264 264 264 264 265 265
16 16 2 5 8 4 359 359 358 356 355 347 337 310 291 299 303 299 298 291 282 275 274 275 275 274 274 278 281 283 284 285 285 283 282 280 277 274 272 270 268 267 268 268 267 266 262 257 254 252 249 247 245 245 245 244 244 242 240 235 230 226 224 225 228 231 234 236 238 240 241 243 244 245 245 245 245 246 247 247 248 250 251 252 253 255 257 258 260 261 262 263 263 263 264 265 265
5 4 354 356 1 359 356 356 354 353 352 347 344 307 289 302 302 297 297 296 291 280 272 271 273 274 274 276 278 281 282 283 285 285 284 281 278 275 273 273 273 272 271 270 270 270 269 266 263 260 256 252 249 247 245 244 243 243 242 240 237 233 229 227 226 227 228 229 232 234 235 237 239 240 240 240 240 242 244 245 246 247 249 250 251 253 255 257 258 260 261 262 262 263 263 264 264
4 6 358 356 357 355 357 356 353 353 351 346 345 324 302 306 302 297 297 297 297 290 279 273 274 276 275 275 276 279 283 285 288 289 287 283 279 276 275 276 276 276 276 275 274 273 272 271 271 269 266 261 257 253 249 246 244 243 243 242 241 238 235 232 231 230 229 228 229 230 230 231 233 235 235 236 237 238 240 241 243 244 245 247 248 250 252 254 256 258 260 261 262 262 263 263 263
9 9 2 358 356 354 355 356 352 352 349 343 341 330 314 309 303 301 302 303 302 296 287 280 278 279 278 278 278 280 284 288 290 290 288 285 282 280 278 278 278 278 279 279 278 276 275 272 271 271 270 268 265 261 257 253 248 245 243 242 242 241 238 236 235 234 233 232 231 231 230 230 230 231 232 232 233 235 236 238 239 240 242 244 246 247 249 252 254 256 258 260 262 263 264 264 264
4 7 4 358 357 355 353 351 350 348 346 341 338 329 317 307 303 305 307 309 307 301 292 282 279 282 285 285 286 286 288 294 296 293 291 288 286 284 282 281 280 280 280 281 282 281 280 278 275 273 272 270 268 266 263 260 256 251 247 243 241 241 240 239 237 236 236 235 234 233 232 230 229 230 230 231 232 233 234 235 237 239 240 242 244 246 249 252 255 257 260 262 264 265 266 265 265
2 4 1 354 353 356 353 347 344 344 342 340 337 329 319 307 303 306 310 312 309 303 293 283 281 287 294 297 296 295 300 308 307 302 298 293 289 286 284 283 283 282 282 282 283 283 283 283 282 280 277 273 270 268 266 264 262 258 253 248 244 241 240 240 239 238 237 237 236 235 234 233 231 231 231 231 232 233 234 235 237 239 240 242 244 248 252 257 261 263 265 266 266 266 266 266 265
4 1 360 353 347 351 352 345 341 342 339 337 334 327 317 305 302 308 312 314 309 300 293 287 287 292 298 302 305 309 313 314 309 305 301 296 291 288 287 286 286 286 285 285 285 285 284 284 283 282 281 279 275 270 267 265 264 262 259 254 249 244 241 240 240 240 239 238 237 236 235 235 234 233 232 232 232 233 235 236 237 239 241 243 246 251 256 261 264 265 264 265 264 263 264 265 266
4 359 358 355 347 346 349 345 341 342 336 333 332 324 314 305 305 310 312 312 305 296 290 288 289 292 300 308 312 313 312 308 305 304 303 298 294 291 290 290 289 288 287 287 286 286 286 285 284 283 283 283 281 277 273 270 267 263 261 258 254 250 245 242 240 240 239 238 237 235 235 234 234 234 233 232 233 233 235 236 238 240 242 244 248 252 255 257 259 259 259 260 260 260 262 264 265
5 358 355 356 350 342 344 346 341 339 334 331 330 320 313 309 308 311 311 308 301 291 283 283 286 292 303 309 309 306 304 302 302 302 301 298 296 294 293 293 292 291 290 290 289 289 289 289 289 288 286 285 285 283 281 278 275 270 265 262 259 256 252 247 244 242 241 240 239 237 235 234 234 233 232 232 232 233 235 237 239 240 242 245 248 250 253 255 256 256 257 257 259 260 262 263 264
4 359 355 354 349 342 343 345 338 335 332 329 326 316 311 309 308 311 312 306 299 292 287 286 290 296 301 302 300 299 299 299 299 299 297 297 299 299 299 299 298 297 296 295 294 293 293 292 293 292 291 289 287 286 285 282 281 279 274 269 265 261 258 253 249 245 243 242 241 239 237 235 234 233 232 232 233 235 237 239 240 241 242 244 247 251 254 256 257 257 257 257 258 259 260 262 263
3 360 356 350 347 343 339 337 333 331 333 329 323 313 308 309 311 312 311 306 300 296 294 293 294 297 297 297 297 298 299 299 300 300 299 298 299 300 301 302 303 303 303 303 301 301 299 298 297 296 295 294 291 289 287 284 283 282 280 276 272 268 263 260 255 251 248 244 241 240 239 238 237 236 235 236 237 239 240 242 242 242 244 245 249 254 256 258 259 259 259 258 258 259 260 262 263
3 360 357 348 343 340 334 331 330 333 340 337 328 313 302 309 314 312 310 306 301 298 296 294 293 294 295 296 298 300 302 304 304 305 305 305 306 306 306 306 306 306 306 306 305 305 305 305 303 301 299 297 296 293 289 286 284 282 281 278 275 271 269 267 263 258 255 251 245 243 242 241 240 240 239 239 239 241 242 242 244 245 245 246 250 255 257 259 259 260 260 259 258 259 260 261 262
3 356 355 348 340 339 339 332 330 337 341 330 330 317 296 307 309 309 310 306 302 300 294 291 291 293 294 296 300 303 304 305 307 309 311 312 313 312 312 312 311 310 308 307 307 306 307 307 307 306 304 301 299 297 293 289 286 284 282 281 277 273 269 268 266 262 259 256 252 248 246 244 242 241 240 240 240 241 241 241 243 245 246 247 250 254 256 257 258 259 260 259 258 258 258 260 261
360 350 349 346 342 342 341 332 328 333 327 323 324 295 293 309 308 312 317 311 303 297 291 290 292 294 298 302 305 306 307 310 313 316 318 318 318 317 315 313 312 311 310 309 307 306 306 305 305 305 305 303 301 299 296 293 289 286 284 283 282 278 273 269 267 264 261 259 257 253 250 248 245 242 241 241 241 241 241 241 242 243 244 246 248 251 253 255 256 258 258 258 257 256 256 258 260
354 346 344 345 346 348 344 337 337 332 323 324 325 288 294 302 307 314 316 313 304 297 292 292 297 301 305 307 309 311 316 321 324 324 324 325 324 323 321 318 316 314 312 311 308 306 305 304 303 303 302 302 301 300 297 294 291 288 286 285 284 281 277 273 270 267 264 263 261 260 257 254 252 248 245 243 242 241 240 241 242 243 244 245 247 249 251 252 254 256 257 256 255 253 254 256 258
351 345 342 346 351 355 355 348 345 338 326 325 338 325 305 296 306 312 312 311 306 303 302 303 306 307 307 309 313 318 323 325 327 327 328 328 328 327 325 322 320 317 315 312 310 307 305 303 301 300 299 298 298 297 295 293 292 290 288 286 284 281 278 275 272 269 267 265 263 263 262 260 258 256 254 250 247 245 243 243 243 243 244 245 247 249 250 251 251 253 254 255 254 253 254 255 257
350 344 345 351 356 357 3 357 348 341 319 314 323 328 322 301 305 308 309 312 310 310 309 307 306 304 307 311 316 320 323 326 328 330 330 329 327 324 321 319 317 315 313 312 310 308 305 302 301 299 298 296 295 293 292 291 290 289 287 285 282 278 275 273 272 270 269 267 264 263 262 262 261 259 258 256 255 252 249 248 246 245 245 246 247 249 250 250 250 251 252 254 254 254 254 254 256
351 348 352 357 358 357 4 353 350 344 306 323 319 318 318 300 303 302 304 311 313 312 308 304 302 302 309 315 319 322 326 328 329 328 325 322 320 319 318 317 315 314 313 311 310 308 306 304 303 303 301 299 297 295 293 291 289 287 285 283 279 275 273 271 270 269 268 268 267 265 263 263 262 261 259 258 257 257 255 253 250 248 247 247 248 249 250 250 250 251 252 252 253 253 254 255 255
355 355 359 1 355 355 358 342 351 353 302 319 318 319 313 286 297 300 303 311 314 313 307 302 300 302 310 316 320 324 325 326 324 322 321 321 322 322 321 319 317 315 314 313 312 310 308 306 306 305 302 300 298 296 295 292 289 286 284 282 279 276 274 271 269 268 266 265 266 266 266 265 263 262 260 259 258 258 258 256 254 251 249 248 248 249 249 249 249 250 250 250 250 251 252 254 255
359 3 6 7 357 353 351 335 340 307 300 313 321 324 311 290 298 301 307 316 318 314 306 303 309 317 320 320 321 323 324 324 323 323 324 326 326 325 323 321 319 317 316 315 314 313 312 310 309 308 304 301 299 297 295 292 290 288 285 282 280 278 277 275 272 270 269 268 266 266 266 265 264 262 260 259 258 258 258 258 257 255 252 249 248 247 248 247 247 247 247 247 247 249 250 252 254
2 7 12 16 4 342 331 325 325 306 303 313 319 317 305 305 307 307 313 316 314 311 310 316 325 330 328 327 327 327 326 326 326 327 328 328 327 325 323 322 320 319 319 319 319 319 317 316 315 313 309 306 303 299 296 293 291 290 288 285 282 280 278 276 275 273 272 272 271 269 268 267 265 262 260 257 256 255 255 255 256 256 255 252 250 247 246 245 244 243 243 244 246 248 250 252 254
356 2 12 19 2 327 299 309 308 299 299 308 312 308 305 311 308 309 311 308 305 307 313 317 319 321 324 326 326 325 325 327 328 328 328 328 327 325 323 321 321 321 322 323 323 322 321 321 320 318 314 311 307 302 299 296 294 293 292 289 285 281 278 275 274 274 273 273 273 272 271 270 267 264 261 258 256 254 253 253 252 253 252 252 252 249 246 244 242 240 241 242 245 247 250 252 254
351 358 7 3 347 297 274 286 290 292 292 298 300 293 302 306 302 304 304 299 303 308 309 308 307 312 318 321 321 323 326 329 329 329 329 328 326 325 323 322 321 323 324 324 325 324 323 323 322 320 317 313 309 304 301 299 297 295 294 291 287 282 276 274 272 271 272 272 273 273 272 271 268 265 263 260 258 256 255 253 251 250 249 249 249 249 248 246 244 242 240 241 243 246 249 252 253
355 359 358 352 346 286 278 292 294 296 284 287 298 297 305 313 306 300 298 302 307 306 306 306 308 314 320 322 324 328 329 329 330 330 329 328 327 326 325 323 323 323 324 325 325 325 325 325 323 320 317 313 309 304 300 298 297 296 295 292 289 285 279 275 273 270 270 270 271 271 270 269 268 267 266 264 263 261 258 257 254 252 251 250 248 247 247 248 248 246 242 241 242 244 247 250 252
1 357 350 353 359 236 290 301 298 304 279 287 300 298 305 315 308 299 303 308 310 310 313 316 316 321 327 328 327 329 330 330 331 330 329 329 330 330 328 326 325 325 326 326 325 326 326 326 324 321 317 313 309 304 298 297 297 296 295 293 290 288 284 280 276 272 270 269 269 269 267 266 265 266 266 266 266 264 262 262 260 257 255 254 252 249 247 246 247 248 246 243 242 243 245 247 249
358 353 350 359 15 270 318 313 293 305 299 295 302 299 302 307 303 304 307 311 319 324 322 320 321 326 330 328 325 329 331 331 331 331 332 333 334 333 331 329 327 326 327 327 325 325 325 325 324 321 316 312 309 305 298 295 295 295 295 293 290 289 287 285 281 277 273 271 270 270 268 267 265 264 264 265 266 266 266 265 265 263 261 259 258 256 253 250 247 246 246 246 244 243 244 245 247
351 350 352 360 3 320 318 313 293 301 303 305 311 305 302 307 309 309 309 314 322 325 322 322 325 329 329 327 327 330 331 333 334 335 337 336 334 333 332 331 330 330 329 325 323 323 323 323 322 319 316 311 308 304 297 293 292 292 293 292 290 288 285 284 283 281 278 275 273 272 271 270 268 267 266 265 266 266 267 268 267 267 266 264 263 261 260 258 254 249 245 244 244 244 244 243 245
346 348 350 350 351 343 321 300 289 296 299 310 315 300 297 308 312 313 317 320 321 322 323 325 327 328 328 330 331 332 334 337 339 338 338 337 334 333 331 330 330 331 328 322 320 321 321 321 320 319 317 312 308 304 297 293 291 290 291 291 290 288 285 283 282 281 280 278 276 274 272 271 270 269 269 268 267 267 267 268 268 268 267 266 266 264 263 263 261 257 251 246 244 243 243 243 243
343 344 345 343 346 348 333 301 297 298 288 296 300 293 298 305 313 318 322 322 322 324 325 325 327 328 328 330 332 334 336 337 338 337 336 336 336 334 332 331 330 329 324 319 318 320 319 319 320 320 318 314 308 303 297 293 290 289 290 292 292 290 287 285 283 281 280 278 277 275 273 272 271 271 272 271 271 271 270 269 269 268 268 267 266 265 265 264 263 263 260 255 249 245 243 242 243